Theta_e
352 351 350 348 346 347 346 347 348 347 348 349 350 350 350 352 353 354 355 355 356 355 351 348 348 348 346 343 340 339 339 340 340 340 341 341 339 339 340 341 341 340
352 351 350 346 345 347 348 348 348 347 348 349 351 350 351 354 356 355 356 356 355 354 351 350 349 347 346 343 341 340 340 340 340 339 340 341 340 340 341 342 342 341
352 350 349 346 345 346 347 348 349 349 349 350 351 351 351 353 356 355 354 355 355 354 351 350 348 346 344 341 340 341 341 341 340 340 341 341 342 342 342 342 342 342
351 349 348 346 344 344 345 346 349 349 349 350 351 351 353 353 355 356 354 353 354 353 351 349 347 345 343 340 340 341 340 340 341 341 342 343 342 343 342 342 342 343
349 348 347 346 345 345 344 344 348 349 349 350 351 352 354 355 355 357 356 354 354 352 350 348 346 345 342 340 340 340 340 339 340 342 344 343 342 343 342 341 342 342
348 348 348 347 347 347 345 344 346 349 349 350 351 351 354 356 356 356 356 355 353 352 350 348 346 344 343 341 341 341 340 340 341 343 344 343 343 343 343 343 342 341
347 349 350 350 350 348 344 343 344 348 350 350 350 351 353 356 357 357 356 355 352 351 349 348 346 344 343 341 341 341 340 341 342 344 345 344 343 343 343 343 343 342
347 349 352 353 351 348 344 342 343 347 349 349 350 353 354 355 356 357 356 354 352 351 350 349 346 344 342 341 341 341 340 341 343 344 344 344 342 342 342 342 341 341
350 352 354 354 350 346 344 342 342 346 349 350 351 353 354 355 356 357 355 353 353 351 350 349 346 344 343 342 340 340 341 342 343 343 343 343 342 342 341 340 340 340
354 355 356 355 349 345 345 343 342 346 349 351 353 353 354 355 355 356 353 351 352 352 350 348 346 344 343 341 340 340 341 342 342 342 342 343 343 342 341 340 340 340
356 358 357 355 349 346 347 345 344 346 351 355 356 353 354 355 355 354 351 351 352 352 350 348 346 342 340 339 340 341 340 341 342 342 342 342 342 341 340 340 339 340
357 359 358 355 352 348 348 347 347 350 356 360 358 356 356 357 354 353 353 353 353 351 351 348 345 340 338 339 340 340 340 341 341 341 341 341 341 340 340 339 338 339
358 360 359 356 354 352 351 350 353 358 360 359 357 355 356 356 355 354 354 354 352 351 351 348 343 339 337 338 340 340 341 341 340 341 341 341 341 340 340 339 339 338
358 360 360 359 358 357 355 357 361 363 359 355 352 351 354 354 354 355 354 354 352 350 349 347 342 338 337 339 340 341 341 341 340 340 341 341 341 340 339 339 339 337
359 361 362 362 361 361 361 363 364 362 356 352 349 350 355 357 355 355 355 354 351 349 348 345 341 339 339 339 340 341 341 340 340 341 341 341 340 340 339 339 338 338
361 361 363 363 363 363 364 364 363 360 355 352 350 350 354 356 354 353 354 353 350 348 347 344 342 341 338 335 337 340 340 340 341 341 341 341 340 340 339 338 337 336
362 362 363 364 364 365 363 361 360 357 353 352 352 352 353 353 352 351 352 351 349 348 347 344 343 341 335 330 331 335 339 341 340 340 341 340 340 340 339 338 336 334
361 361 362 363 365 365 363 360 357 354 353 354 354 353 352 352 352 351 350 350 349 347 346 345 344 340 333 330 330 331 336 340 340 340 340 340 340 340 338 337 336 333
360 360 361 362 364 365 364 362 358 355 355 357 356 353 352 352 352 351 350 349 348 348 345 345 344 339 332 331 331 330 333 338 340 339 339 339 339 338 336 336 336 335
361 360 360 361 362 364 365 364 361 359 358 358 356 353 353 353 353 353 351 349 348 347 345 344 344 340 333 331 331 331 332 336 340 340 339 338 337 335 335 337 338 337
362 361 361 363 363 365 366 364 362 362 360 357 355 353 354 354 354 354 352 349 349 347 346 345 344 339 334 330 331 332 332 336 340 339 337 336 335 335 337 338 338 337
363 363 363 364 365 365 364 363 364 363 359 356 354 355 356 355 354 354 351 349 348 347 346 346 344 340 334 331 332 332 332 336 339 337 334 334 335 337 337 337 337 337
363 363 364 364 365 364 364 364 364 361 358 356 356 357 356 355 355 354 352 350 348 347 347 348 346 340 334 331 332 332 334 338 337 334 334 336 337 337 336 336 337 337
361 362 362 363 365 365 365 365 364 362 360 358 357 358 357 355 355 354 352 351 349 347 347 348 347 341 333 332 332 332 335 338 335 334 337 338 338 337 336 337 337 337
359 360 361 362 363 363 363 363 364 365 363 359 358 360 359 356 355 354 353 352 350 348 345 347 348 341 333 332 332 332 335 336 334 336 339 339 338 337 336 336 336 335
356 358 359 359 357 356 357 358 361 365 364 360 359 359 358 356 354 354 354 352 351 349 345 346 348 342 334 332 331 333 334 334 335 338 339 339 338 337 337 336 335 335
Wind_Speed
13 12 11 11 11 10 9 8 9 8 6 5 4 2 1 1 3 3 3 3 1 1 1 2 4 5 4 4 5 5 5 5 5 4 4 4 5 6 7 8 8 8
14 13 12 11 10 10 10 10 9 8 6 6 5 3 1 2 2 2 2 1 2 3 2 3 5 5 5 4 4 5 5 5 5 4 4 4 5 6 7 7 8 8
15 14 13 12 11 11 12 12 10 8 7 6 5 4 3 2 1 2 2 1 3 3 4 4 5 5 5 4 4 5 5 5 5 4 4 4 4 5 6 7 7 7
16 15 15 14 12 11 12 12 11 10 9 8 7 5 4 2 2 2 2 1 3 4 4 5 5 6 5 5 5 6 6 6 6 5 4 4 4 5 6 7 7 7
16 16 15 14 12 11 11 13 13 11 10 9 8 6 4 3 3 2 2 2 3 5 5 5 6 6 5 5 6 6 6 6 6 5 4 4 5 5 6 6 7 8
16 16 15 14 13 12 12 13 13 12 11 10 9 7 6 5 4 3 3 3 4 4 5 6 6 6 5 5 5 5 5 6 6 5 5 5 5 5 6 6 7 8
16 16 15 15 15 14 13 14 14 13 11 10 9 8 7 6 5 4 4 4 4 5 5 6 6 6 6 5 5 6 6 7 7 6 5 5 5 5 6 7 7 7
15 15 15 16 16 15 14 14 14 13 12 10 9 9 8 7 6 5 5 4 5 5 6 5 5 5 6 6 6 7 7 7 7 6 6 5 5 5 6 6 7 7
14 15 16 16 16 15 14 15 15 13 12 11 10 9 8 8 6 6 6 5 6 6 6 6 5 5 6 6 7 8 8 7 7 6 5 5 5 5 5 5 6 7
15 16 17 16 16 15 14 14 15 14 12 11 10 9 9 9 7 7 8 7 7 8 7 7 6 6 7 6 7 8 8 7 7 5 5 5 4 4 4 5 5 6
16 17 17 17 16 16 15 14 14 13 11 11 10 9 9 9 8 9 9 8 8 8 8 8 7 6 6 6 7 8 7 7 6 5 5 5 5 4 3 4 4 5
17 17 17 17 17 16 15 14 14 13 11 10 10 10 10 9 10 10 8 8 9 8 8 8 7 5 5 7 8 8 7 7 6 5 5 5 4 3 3 3 3 4
17 17 18 17 18 18 16 14 14 14 13 12 11 12 13 12 12 10 8 9 10 9 9 8 7 6 6 7 8 8 8 7 7 6 5 5 4 3 2 2 2 3
17 17 17 17 18 18 16 15 15 15 15 14 13 14 15 15 14 11 9 9 11 11 11 9 7 6 7 8 9 8 8 7 7 6 6 5 4 4 2 2 2 2
17 15 15 16 16 17 16 15 16 16 15 15 15 14 14 14 14 11 9 10 12 12 12 10 8 7 8 8 9 9 8 8 7 6 6 5 5 4 3 3 2 1
16 14 14 15 16 16 16 16 16 16 16 16 15 15 15 15 15 13 11 12 13 13 12 10 8 8 8 9 10 9 8 8 7 7 6 6 5 5 4 3 2 1
15 14 13 14 15 15 17 17 17 17 17 17 16 16 17 17 17 15 14 14 14 14 12 10 8 8 8 9 9 10 9 8 7 7 7 6 6 5 4 4 3 2
15 15 14 14 14 15 16 18 19 19 18 17 17 17 18 18 17 17 16 15 14 14 12 9 8 9 9 8 9 10 10 8 7 7 7 6 6 5 4 4 3 4
14 14 14 14 14 14 15 17 18 19 18 17 17 18 18 18 18 17 17 15 14 14 12 10 9 10 9 9 9 11 11 9 6 6 6 6 5 5 4 4 4 6
13 14 14 14 15 14 14 15 17 18 18 18 18 19 18 18 17 16 16 16 15 14 12 11 10 11 10 11 10 11 12 9 6 6 6 5 5 4 4 5 7 7
13 14 14 14 14 15 14 15 15 16 18 19 19 19 18 18 16 15 16 16 16 15 13 11 11 12 12 12 11 12 12 9 6 6 6 5 5 5 5 7 7 7
12 13 13 14 15 15 16 16 16 17 19 21 20 18 17 17 16 16 17 17 17 17 14 12 12 13 13 13 12 13 12 9 6 6 6 6 6 7 7 7 7 7
10 10 11 12 14 15 16 16 17 18 20 21 20 18 17 17 16 15 16 17 18 18 16 14 14 15 14 14 14 14 12 9 8 7 7 7 8 8 8 7 8 8
5 6 7 9 10 11 12 13 15 16 17 19 18 17 17 17 15 14 14 16 18 20 18 16 15 17 16 15 15 15 13 10 9 8 8 9 9 9 8 8 9 10
3 2 2 4 5 6 6 7 9 10 13 16 16 13 13 15 14 13 14 15 17 20 20 18 16 17 17 16 16 16 14 11 9 9 10 11 11 10 9 8 8 10
7 5 2 2 1 3 4 6 7 7 8 11 12 11 11 13 14 13 14 14 15 18 21 18 16 18 19 18 17 16 15 12 10 10 11 12 11 11 10 10 9 9
Wind_Direction
215 214 213 212 213 216 213 209 209 208 215 234 243 253 293 318 321 345 353 344 16 75 12 26 70 88 89 68 65 79 87 92 92 85 75 66 61 59 55 51 43 36
215 214 214 212 208 209 210 211 215 213 211 224 241 255 253 265 307 344 355 5 91 109 90 89 101 106 104 84 76 91 99 99 97 89 79 71 61 58 56 54 48 40
215 213 213 215 211 207 208 210 215 219 217 219 227 232 229 235 277 317 321 105 131 125 114 118 119 115 110 93 87 101 108 106 102 94 84 72 60 59 57 53 50 40
213 213 212 214 215 212 211 210 210 214 219 222 222 218 218 240 256 279 297 229 148 141 137 137 130 124 117 98 99 113 114 111 109 103 90 75 65 63 59 53 50 39
211 211 212 213 213 215 216 213 211 213 217 219 221 218 213 235 248 229 226 202 162 155 153 150 138 132 122 104 110 120 117 115 113 106 94 83 72 65 58 54 51 42
209 207 209 209 207 212 218 216 215 215 215 216 219 220 215 224 238 227 216 196 173 164 157 150 141 133 124 117 122 126 122 121 119 111 101 89 80 71 65 58 52 46
207 204 203 202 202 210 219 220 218 216 216 217 217 214 213 221 230 229 221 197 178 171 162 156 150 139 131 127 128 129 128 127 124 118 108 98 89 78 68 60 52 46
206 201 197 199 204 210 217 219 218 217 217 217 216 213 212 219 227 228 220 198 182 174 165 167 169 150 136 135 135 134 132 130 129 125 117 111 102 88 73 61 53 46
200 195 194 200 207 210 214 216 215 216 217 216 217 212 210 219 222 218 218 203 184 181 175 173 174 150 140 144 143 139 136 136 137 135 130 123 113 99 81 65 54 47
194 195 197 204 209 209 212 214 213 214 214 214 218 214 211 216 213 215 231 222 192 189 188 181 172 156 149 149 145 143 142 143 145 142 136 126 113 101 82 64 50 45
196 198 202 209 211 209 210 212 212 214 211 206 213 219 215 213 213 223 236 223 195 188 188 187 185 174 162 152 146 146 146 146 150 147 139 133 123 111 90 71 57 49
199 201 204 208 209 208 208 210 209 209 205 200 209 218 215 215 223 226 219 201 192 185 183 194 201 186 168 156 148 149 151 152 155 152 145 144 138 128 112 87 66 54
198 202 204 204 205 205 207 207 202 198 200 206 216 219 217 221 228 221 203 193 190 180 180 198 204 186 169 160 153 153 156 157 159 158 154 151 149 145 136 112 83 61
200 203 203 202 202 203 203 200 194 195 204 215 223 224 221 225 228 218 197 192 191 186 192 203 202 187 175 165 160 160 162 164 165 166 162 157 156 155 148 142 127 84
201 201 199 200 200 199 197 193 193 199 210 218 224 223 218 222 226 214 192 193 198 198 202 205 195 184 180 171 164 164 167 170 171 172 169 165 166 166 160 161 161 126
198 198 197 197 198 198 195 195 197 204 211 217 221 220 217 221 225 214 201 207 210 205 202 197 186 187 193 185 174 169 170 173 175 175 175 173 175 180 177 172 169 155
194 195 197 198 198 199 198 200 203 207 213 217 216 218 220 224 227 219 214 217 214 206 199 184 180 196 205 196 185 177 171 173 179 179 178 181 184 190 188 179 177 170
195 195 199 202 200 200 200 203 207 209 212 213 212 217 222 225 226 223 220 218 211 205 193 173 184 208 206 193 191 184 173 172 185 185 181 187 191 193 194 184 180 174
196 196 200 202 200 201 200 201 205 207 207 207 210 217 222 224 224 221 220 215 205 200 187 170 191 213 204 192 192 187 175 171 186 189 183 188 188 190 196 181 166 164
195 196 200 200 198 199 196 196 200 201 202 205 210 216 220 220 218 215 216 213 203 196 183 176 198 212 203 193 191 186 177 171 183 190 181 185 185 180 181 165 155 156
195 196 198 198 195 193 191 192 195 195 199 206 210 214 217 217 213 209 211 209 201 194 182 181 203 213 203 194 189 184 179 174 184 189 178 179 177 166 160 156 152 155
196 194 195 195 192 191 190 190 192 195 203 209 209 209 211 211 208 207 209 207 202 194 183 182 205 213 202 194 189 183 180 182 186 185 177 172 166 157 154 155 153 151
199 197 197 196 195 196 194 190 192 198 206 210 207 204 207 208 205 203 205 205 200 195 184 182 203 212 201 194 191 182 179 185 184 178 174 165 159 157 156 157 159 156
193 199 208 211 210 208 201 195 194 195 203 209 207 203 205 206 201 196 196 197 199 198 190 186 202 211 200 193 194 186 180 183 181 174 170 162 157 159 158 162 168 163
117 144 215 239 242 239 229 217 206 196 200 207 208 202 200 199 194 187 187 192 196 199 197 192 200 209 202 195 195 188 181 182 181 174 168 162 160 160 157 158 166 163
69 65 49 42 347 293 257 229 220 215 207 205 204 199 195 195 191 185 186 187 189 197 198 194 199 208 203 196 196 191 182 181 182 177 171 165 164 164 160 157 160 162